Regional Weather Roundup
Issued by NWS Mt. Holly, NJ

Home | Current Version | Previous Version | Text Only | Print | Product List | Glossary On
Versions: 1 2 3 4 5 6 7 8 9 10 11 12 13 14 15 16 17 18 19 20 21 22 23 24 25 26 27 28 29 30 31 32 33 34 35 36 37 38 39 40 41 42 43 44 45 46 47 48 49 50
000
ASUS41 KPHI 291312
RWRPHI

REGIONAL WEATHER ROUNDUP
NATIONAL WEATHER SERVICE MOUNT HOLLY NJ
900 AM EDT SUN MAY 29 2016

NOTE:  "FAIR" INDICATES FEW OR NO CLOUDS BELOW 12,000 FEET WITH NO
SIGNIFICANT WEATHER AND/OR OBSTRUCTIONS TO VISIBILITY.

 * = STATION DOES NOT REPORT PRECIPITATION (E.G. RAIN, SNOW, ETC.)
        OR FOG.

NJZ015>026-291400-
SOUTHERN NEW JERSEY

CITY           SKY/WX    TMP DP  RH WIND       PRES   REMARKS
POMONA         SUNNY     76  65  68 SW6       30.17S
WILDWOOD*      SUNNY    N/A N/A N/A SE5       30.18S
MILLVILLE      SUNNY     75  65  70 SW3       30.17F
WRIGHTSTOWN    SUNNY     74  64  70 W8        30.14F
MOUNT HOLLY    SUNNY     74  63  68 SW6       30.16F
TRENTON        SUNNY     74  61  63 SW8       30.15F

$$
NJZ001>014-291400-
NORTHERN NEW JERSEY

CITY           SKY/WX    TMP DP  RH WIND       PRES   REMARKS
SUSSEX         SUNNY     75  65  70 SW6       30.14F
ANDOVER*         N/A     75  62  64 VRB5      30.15S
MORRISTOWN     MOSUNNY   77  61  57 SW9       30.15S
NEWARK         PTSUNNY   79  58  48 SW8       30.14S
TETERBORO      SUNNY     77  57  50 S5        30.12F
CALDWELL       SUNNY     76  61  59 VRB6      30.14F
SOMERVILLE     SUNNY     75  63  66 SW3       30.13S
ALLAIRE*       SUNNY     76  62  62 SW9       30.18S
TOMS RIVER*    MOSUNNY  N/A N/A N/A SW7       30.17S

$$
PAZ043-044-047-054-055-060>062-066>071-291400-
EASTERN PENNSYLVANIA

CITY           SKY/WX    TMP DP  RH WIND       PRES   REMARKS
PHILADELPHIA   CLOUDY    73  62  68 SW6       30.16F
NORTH PHILA    SUNNY     77  62  59 SW6       30.17F
BLUE BELL*     CLOUDY    73  63  68 SW3       30.16S
DOYLESTOWN     SUNNY     73  60  63 SW7       30.16S
QUAKERTOWN*    CLOUDY    75  63  64 S5        30.17S
PERKASIE*      FAIR      73  63  68 SW3       30.17S
POTTSTOWN      PTSUNNY   72  63  73 CALM      30.17F
LANCASTER      MOSUNNY   73  62  68 CALM      30.16R
COATESVILLE    MOSUNNY   72  63  73 VRB3      30.18S
READING        CLOUDY    76  61  59 CALM      30.14S
ALLENTOWN      MOSUNNY   77  60  55 VRB3      30.15S
MOUNT POCONO   SUNNY     73  66  78 SW3       30.20S
HAZLETON       SUNNY     77  63  61 CALM      30.21S
LEHIGHTON      FAIR      73  64  73 CALM      30.16S
WILKES BARRE   SUNNY     78  66  66 CALM      30.14F

$$
DEZALL-MDZ008-012-015-019-020-291400-
DELAWARE AND EASTERN MARYLAND

CITY           SKY/WX    TMP DP  RH WIND       PRES   REMARKS
WILMINGTON     MOSUNNY   71  64  78 SE7       30.17S
DOVER          MOSUNNY   74  72  96 SE5       30.15F
GEORGETOWN     SUNNY     74  69  85 CALM      30.17S
EASTON         SUNNY     73  72  94 CALM      30.19
PATUXENT       PTSUNNY   72  67  84 SE7       30.15S
OCEAN CITY     CLOUDY   N/A N/A N/A S3        30.17S
WALLOPS ISLAND FAIR      75  71  87 SE8       30.16S
CAMBRIDGE        N/A     72  68  88 CALM      30.15S
SALISBURY      SUNNY     76  71  85 VRB5      30.16S

$$
PAZ001-021-NYZ056-072-MDZ011-DCZ001-291400-
OTHER NEARBY LOCATIONS

CITY           SKY/WX    TMP DP  RH WIND       PRES   REMARKS
HARRISBURG     MOSUNNY   74  62  66 SE3       30.14S
STATE COLLEGE  MOSUNNY   73  66  78 CALM      30.16
WILLIAMSPORT   MOSUNNY   76  67  73 CALM      30.12R
BINGHAMTON     SUNNY     75  66  73 SW7       30.15S
NEW YORK CITY  SUNNY     77  57  50 CALM      30.17S
BALTIMORE      MOSUNNY   74  64  71 S6        30.14F
WASHINGTON DC  PTSUNNY   73  66  78 S7        30.15F

$$



USA.gov is the U.S. government's official web portal to all federal, state and local government web resources and services.